OBJECT C, 66055

Orbit data source: Space-Track

You're viewing an Uncataloged Satellite

Recently launched and/or uncataloged satellites may have evolving metadata. Metadata may include but not limited to: Owner, Maufacturer, Bus, Motor, and Mission.

OBJECT C, 66055 is a satellite in SSO that was launched on Sun, 19 Oct 2025 UTC via a LIJIAN-1 launch vehicle from the Jiuquan Satellite Launch Center, China (JSC). Unknown objects in Earth's orbit typically refer to objects detected orbiting the Earth but have not yet been identified or cataloged. These objects could be anything from previously untracked satellites, spent rocket stages, debris from satellite collisions, or even natural meteoroids temporarily captured by Earth's gravity.

Loading next visibility...
Identifier
66055, 2025-234C
Orbit
SSO
Country
Flag of TBDTBD
Related business
Flag of CNZhongke Satellite Tech. Group (CN)
Manufacturer
ZHWK/SECM
Mission
Operational spacecraft
Bus & Motor
ZK1, Unknown motor
Mass
~250 kg wet, ~250 kg dry
Launch date (UTC)
2025-10-19 (3 days ago)
Launch vehicle
LIJIAN-1
Launch site
Jiuquan Satellite Launch Center, China (JSC)
Object type
Unknown
Shape & HBR
Unknown
Radar Cross Section
RCS unknown

Expand to show TLE details & history
Last TLE update: 7 hours ago

TLE from 7 hours ago
0 OBJECT C
1 66055U 25234C   25294.82259235  .00007251  00000-0  32786-3 0  9990
2 66055  97.4586   0.4726 0014217 274.6534  85.3078 15.21143479   411
Epoch: 2025-10-21T19:44Z
TLE epoch observation values (Epoch: 2025-10-21T19:44:31.979Z)
Latitude
0.00003°
Longitude
33.83432°
Altitude
504.694 km
Speed
7.612 km/s
True Right ascension
00h 01m 53s
True Declination
0° 00' 00"
Sunlit
Object was in full shadow at epoch
Visualization orbit readout
Latitude
Unknown
Longitude
Unknown
Altitude
Unknown
Speed
Unknown
Apparent Right ascension
Unknown
Apparent Declination
Unknown
Sunlit
N/A
Visualization observer readout
Local Sidereal Time
21:48:25
Azimuth
Unknown
Elevation
Unknown
Doppler factor
Unknown
Orbital elements
Apogee altitude
509.135 km
Perigee altitude
489.579 km
Semi-major axis
6,877.494 km
Eccentricity
0.00142
Inclination
97.4586°
RAAN
0.4726°
Arg. of periapsis
274.6534°
True anomaly
85.47019°
Mean anomaly
85.3078°
Eccentric anomaly
85.38899°
Mean motion
3.80538 °/min
Orbital period
94.6 mins
BSTAR
0.00032786
Loading maneuver chart data...
Computing Atmospheric mass density...
Loading historical data...
Loading historical data...
Loading historical data...
Loading historical data...
Loading historical data...
Loading historical data...
Loading historical data...
Other satellites on launch #234 in the year 2025 (2025-10-19 UTC)

Documentation

Showing up to 5 results
|